Location: Bagnolo San Vito
(45.0833°N, 10.8833°E)
Time: 23:33:16
(UTC+00:00)

BREEZE-M DEB (TANK) - Pass Details

Date: 03 March 2021
Orbit: 308 x 15403 km, 49.5° (Epoch: 17 April)

Event Time Altitude Azimuth Distance (km) Brightness Sun altitude
Rises 19:44:09 0° 292° (WNW) 2,252 6.7 -28.2°
Reaches altitude 10° 19:45:30 10° 297° (WNW) 1,608 5.6 -28.4°
Enters shadow 19:47:34 45° 322° (NW) 865 3.5 -28.7°
